Weather History for Aitkin, MN

Change the Weather History Date:

Friday, November 16, 2012

  Actual Average Record
Temperature  
Mean Temperature 26 °F -  
Max Temperature 39 °F 37 °F 60 °F (2001)
Min Temperature 12 °F 20 °F -4 °F (1959)
Degree Days  
Heating Degree Days 40    
Moisture  
Dew Point 12 °F    
Average Humidity 58    
Maximum Humidity 79    
Minimum Humidity 28    
Precipitation  
Precipitation 0.00 in - - ()
Sea Level Pressure  
Sea Level Pressure 30.37 in    
Wind  
Wind Speed 3 mph (SSE)    
Max Wind Speed 13 mph    
Max Gust Speed 17 mph    
Visibility 10 miles    
Events      
Averages and records for this station are not official NWS values.
T = Trace of Precipitation, MM = Missing Value Source: NWS Daily Summary

Daily Weather History Graph

Daily Weather History Graph

Search for Another Location

Airport:

Trip Planner

Search our weather history database for the weather conditions in past years. The results will help you decide how hot, cold, wet, or windy it might be!

Date:

Astronomy

Nov. 16, 2012 Rise Set
Actual Time 7:18 AM CST 4:39 PM CST
Civil Twilight 6:45 AM CST 5:12 PM CST
Nautical Twilight 6:09 AM CST 5:49 PM CST
Astronomical Twilight 5:33 AM CST 6:25 PM CST
Moon 10:17 AM CST (11/16) 7:37 PM CST (11/16)
Length of Visible Light 10h 26m
Length of Day
9h 20m
Waxing Crescent, 12% of the Moon is Illuminated
Nov 16
Waxing Crescent
Nov 20
First Quarter
Nov 28
Full
Dec 6
Last Quarter
Dec 13
New

Hourly Weather History & Observations

Time (CST) Temp. Windchill Dew Point Humidity Pressure Visibility Wind Dir Wind Speed Gust Speed Precip Events Conditions
12:12 AM 17.6 °F - 8.6 °F 68% 30.46 in 10.0 mi Calm Calm - N/A   Clear
12:33 AM 15.8 °F - 10.4 °F 79% 30.46 in 10.0 mi Calm Calm - N/A   Clear
12:53 AM 15.8 °F - 10.4 °F 79% 30.46 in 10.0 mi Calm Calm - N/A   Clear
1:12 AM 15.8 °F - 10.4 °F 79% 30.47 in 10.0 mi Calm Calm - N/A   Clear
1:33 AM 15.8 °F - 10.4 °F 79% 30.46 in 10.0 mi Calm Calm - N/A   Clear
1:53 AM 15.8 °F - 8.6 °F 73% 30.46 in 10.0 mi Calm Calm - N/A   Clear
2:12 AM 15.8 °F - 10.4 °F 79% 30.44 in 10.0 mi Calm Calm - N/A   Clear
2:33 AM 14.0 °F - 8.6 °F 79% 30.45 in 10.0 mi Calm Calm - N/A   Clear
2:52 AM 14.0 °F - 8.6 °F 79% 30.45 in 10.0 mi Calm Calm - N/A   Clear
3:12 AM 14.0 °F - 8.6 °F 79% 30.44 in 10.0 mi Calm Calm - N/A   Clear
3:33 AM 14.0 °F - 8.6 °F 79% 30.44 in 10.0 mi Calm Calm - N/A   Clear
3:52 AM 15.8 °F - 8.6 °F 73% 30.44 in 10.0 mi Calm Calm - N/A   Clear
4:12 AM 14.0 °F - 8.6 °F 79% 30.44 in 10.0 mi Calm Calm - N/A   Clear
4:33 AM 14.0 °F - 8.6 °F 79% 30.44 in 10.0 mi Calm Calm - N/A   Clear
4:52 AM 14.0 °F - 8.6 °F 79% 30.44 in 10.0 mi Calm Calm - N/A   Clear
5:12 AM 12.2 °F - 6.8 °F 79% 30.44 in 10.0 mi Calm Calm - N/A   Clear
5:33 AM 12.2 °F - 6.8 °F 79% 30.44 in 10.0 mi Calm Calm - N/A   Clear
5:52 AM 12.2 °F - 6.8 °F 79% 30.44 in 10.0 mi Calm Calm - N/A   Clear
6:12 AM 12.2 °F - 6.8 °F 79% 30.43 in 10.0 mi Calm Calm - N/A   Clear
6:33 AM 12.2 °F - 6.8 °F 79% 30.43 in 10.0 mi Calm Calm - N/A   Clear
6:52 AM 12.2 °F - 6.8 °F 79% 30.44 in 10.0 mi Calm Calm - N/A   Clear
7:12 AM 12.2 °F - 6.8 °F 79% 30.44 in 10.0 mi Calm Calm - N/A   Clear
7:33 AM 12.2 °F - 6.8 °F 79% 30.44 in 10.0 mi Calm Calm - N/A   Clear
7:52 AM 12.2 °F - 6.8 °F 79% 30.44 in 10.0 mi Calm Calm - N/A   Clear
8:12 AM 17.6 °F - 10.4 °F 73% 30.44 in 10.0 mi Calm Calm - N/A   Clear
8:33 AM 21.2 °F - 14.0 °F 74% 30.44 in 10.0 mi Calm Calm - N/A   Clear
8:52 AM 24.8 °F 20.5 °F 15.8 °F 69% 30.44 in 10.0 mi ESE 3.5 mph - N/A   Clear
9:12 AM 26.6 °F - 17.6 °F 69% 30.44 in 10.0 mi Calm Calm - N/A   Clear
9:33 AM 28.4 °F 23.3 °F 19.4 °F 69% 30.44 in 10.0 mi SSE 4.6 mph - N/A   Clear
9:52 AM 30.2 °F 23.4 °F 17.6 °F 60% 30.45 in 10.0 mi SSE 6.9 mph - N/A   Clear
10:12 AM 30.2 °F 24.3 °F 19.4 °F 64% 30.44 in 10.0 mi SSE 5.8 mph - N/A   Clear
10:33 AM 33.8 °F 27.0 °F 19.4 °F 56% 30.45 in 10.0 mi SSE 8.1 mph - N/A   Clear
10:52 AM 33.8 °F 28.6 °F 17.6 °F 52% 30.44 in 10.0 mi South 5.8 mph - N/A   Clear
11:12 AM 35.6 °F 29.9 °F 17.6 °F 48% 30.44 in 10.0 mi South 6.9 mph - N/A   Clear
11:33 AM 35.6 °F 29.9 °F 15.8 °F 44% 30.43 in 10.0 mi South 6.9 mph - N/A   Clear
11:52 AM 35.6 °F 29.2 °F 14.0 °F 41% 30.43 in 10.0 mi South 8.1 mph - N/A   Clear
12:12 PM 37.4 °F 31.4 °F 12.2 °F 36% 30.42 in 10.0 mi SSE 8.1 mph - N/A   Clear
12:33 PM 37.4 °F 30.8 °F 10.4 °F 33% 30.41 in 10.0 mi SSE 9.2 mph - N/A   Clear
12:52 PM 37.4 °F 30.8 °F 10.4 °F 33% 30.39 in 10.0 mi SSE 9.2 mph - N/A   Clear
1:12 PM 37.4 °F 29.3 °F 12.2 °F 36% 30.38 in 10.0 mi SE 12.7 mph - N/A   Clear
1:33 PM 37.4 °F 29.8 °F 10.4 °F 33% 30.37 in 10.0 mi SE 11.5 mph 17.3 mph N/A   Clear
1:52 PM 37.4 °F 29.8 °F 10.4 °F 33% 30.36 in 10.0 mi South 11.5 mph - N/A   Clear
2:12 PM 37.4 °F 30.3 °F 10.4 °F 33% 30.35 in 10.0 mi SSE 10.4 mph - N/A   Clear
2:33 PM 39.2 °F 33.6 °F 10.4 °F 31% 30.34 in 10.0 mi SSE 8.1 mph - N/A   Clear
2:52 PM 37.4 °F 32.8 °F 10.4 °F 33% 30.34 in 10.0 mi SE 5.8 mph - N/A   Clear
3:12 PM 37.4 °F 32.8 °F 8.6 °F 30% 30.33 in 10.0 mi SSE 5.8 mph - N/A   Clear
3:33 PM 39.2 °F 34.2 °F 8.6 °F 28% 30.33 in 10.0 mi SSE 6.9 mph - N/A   Clear
3:52 PM 37.4 °F 32.1 °F 8.6 °F 30% 30.33 in 10.0 mi SSE 6.9 mph - N/A   Clear
4:12 PM 37.4 °F 30.8 °F 6.8 °F 28% 30.32 in 10.0 mi SSE 9.2 mph - N/A   Clear
4:33 PM 35.6 °F 30.7 °F 8.6 °F 33% 30.31 in 10.0 mi SE 5.8 mph - N/A   Clear
4:52 PM 33.8 °F 28.6 °F 10.4 °F 38% 30.30 in 10.0 mi SE 5.8 mph - N/A   Clear
5:13 PM 32.0 °F 27.5 °F 10.4 °F 41% 30.30 in 10.0 mi SE 4.6 mph - N/A   Clear
5:33 PM 32.0 °F 28.7 °F 10.4 °F 41% 30.30 in 10.0 mi SE 3.5 mph - N/A   Clear
5:52 PM 30.2 °F - 12.2 °F 47% 30.30 in 10.0 mi Calm Calm - N/A   Clear
6:13 PM 30.2 °F 24.3 °F 12.2 °F 47% 30.29 in 10.0 mi ESE 5.8 mph - N/A   Clear
6:33 PM 30.2 °F 26.7 °F 12.2 °F 47% 30.29 in 10.0 mi ESE 3.5 mph - N/A   Clear
6:52 PM 30.2 °F 24.3 °F 12.2 °F 47% 30.28 in 10.0 mi ESE 5.8 mph - N/A   Clear
7:13 PM 30.2 °F 25.4 °F 12.2 °F 47% 30.28 in 10.0 mi SE 4.6 mph - N/A   Clear
7:52 PM 30.2 °F 24.3 °F 14.0 °F 51% 30.27 in 10.0 mi SE 5.8 mph - N/A   Clear
8:13 PM 30.2 °F 24.3 °F 15.8 °F 55% 30.26 in 10.0 mi SSE 5.8 mph - N/A   Clear
8:33 PM 30.2 °F 23.4 °F 15.8 °F 55% 30.26 in 10.0 mi SSE 6.9 mph - N/A   Clear
8:52 PM 32.0 °F 25.6 °F 17.6 °F 55% 30.26 in 10.0 mi SSE 6.9 mph - N/A   Clear
9:13 PM 33.8 °F 26.4 °F 19.4 °F 56% 30.25 in 10.0 mi SSE 9.2 mph - N/A   Clear
9:33 PM 35.6 °F 28.6 °F 19.4 °F 52% 30.25 in 10.0 mi SSE 9.2 mph - N/A   Clear
9:52 PM 35.6 °F 29.9 °F 19.4 °F 52% 30.25 in 10.0 mi SSE 6.9 mph - N/A   Clear
10:13 PM 35.6 °F 28.6 °F 19.4 °F 52% 30.24 in 10.0 mi South 9.2 mph - N/A   Clear
10:33 PM 35.6 °F 28.6 °F 21.2 °F 56% 30.24 in 10.0 mi SSE 9.2 mph - N/A   Clear
10:52 PM 35.6 °F 28.6 °F 21.2 °F 56% 30.24 in 10.0 mi SSE 9.2 mph - N/A   Clear
11:13 PM 35.6 °F 29.2 °F 21.2 °F 56% 30.24 in 10.0 mi SSE 8.1 mph - N/A   Clear
11:32 PM 33.8 °F 27.7 °F 23.0 °F 65% 30.23 in 10.0 mi SSE 6.9 mph - N/A   Clear
11:52 PM 33.8 °F 28.6 °F 23.0 °F 65% 30.24 in 10.0 mi South 5.8 mph - N/A   Clear